CW1631 Weather Reports


Display with metric or nautical units.
time (UTC)temp
F
wind
direction
speed
MPH
gust
MPH
rain 1hr
in
rain 24hr
in
rain mn
in
humidity
%
barometer
mb
20260503041121 36 283 1.0 1.0 0.00 0.00 0.00 80 1013.6
20260503040618 37 254 0.0 0.0 0.00 0.00 0.00 79 1013.6
20260503040115 37 255 0.0 0.0 0.00 0.00 0.00 79 1013.5
20260503035612 37 248 0.0 1.0 0.00 0.03 0.03 79 1013.3
20260503035110 37 275 0.0 1.0 0.00 0.03 0.03 78 1013.5
20260503034607 37 257 0.0 0.0 0.00 0.03 0.03 76 1013.5
20260503034104 38 287 0.0 0.0 0.00 0.03 0.03 76 1013.6
20260503033601 38 264 0.0 0.0 0.00 0.03 0.03 74 1013.6
20260503033059 38 297 0.0 0.0 0.00 0.03 0.03 74 1013.6
20260503032557 38 305 1.0 1.0 0.00 0.03 0.03 74 1013.5
20260503032055 39 268 0.0 0.0 0.00 0.03 0.03 72 1013.6
20260503031552 39 218 1.0 1.0 0.00 0.03 0.03 69 1013.4
20260503031049 39 229 1.0 1.0 0.00 0.03 0.03 69 1013.5
20260503030545 39 295 0.0 0.0 0.00 0.03 0.03 68 1013.6
20260503030043 39 325 1.0 1.0 0.00 0.03 0.03 68 1013.5
20260503025539 39 36 2.0 2.0 0.00 0.03 0.03 69 1013.5
20260503025037 40 12 2.0 2.0 0.00 0.03 0.03 67 1013.7
20260503024533 40 257 2.0 2.0 0.00 0.03 0.03 66 1013.6
20260503024030 40 286 0.0 1.0 0.00 0.03 0.03 66 1013.6
20260503023527 40 291 2.0 2.0 0.00 0.03 0.03 65 1013.5
20260503023025 40 274 0.0 0.0 0.00 0.03 0.03 66 1013.6
20260503022520 40 262 1.0 2.0 0.00 0.03 0.03 66 1013.5
20260503022015 40 266 0.0 1.0 0.00 0.03 0.03 66 1013.6
20260503021512 41 273 1.0 1.0 0.00 0.03 0.03 65 1013.5
20260503021009 41 285 2.0 2.0 0.00 0.03 0.03 65 1013.5
20260503020507 41 296 2.0 3.0 0.00 0.03 0.03 65 1013.8
20260503020003 41 293 3.0 3.0 0.00 0.03 0.03 64 1013.6
20260503015500 41 263 3.0 3.0 0.00 0.03 0.03 65 1013.6
20260503014956 42 244 2.0 2.0 0.00 0.03 0.03 65 1013.5
20260503014453 42 256 1.0 1.0 0.00 0.03 0.03 65 1013.6
20260503013951 42 261 1.0 1.0 0.00 0.03 0.03 64 1013.4
20260503013448 42 280 2.0 2.0 0.00 0.03 0.03 64 1013.3
20260503012945 42 335 4.0 5.0 0.00 0.03 0.03 63 1013.4
20260503012443 42 269 0.0 0.0 0.00 0.03 0.03 63 1013.3
20260503011938 42 322 2.0 2.0 0.00 0.03 0.03 62 1013.4
20260503011436 43 261 1.0 1.0 0.00 0.03 0.03 61 1013.2
20260503010933 43 284 1.0 1.0 0.00 0.03 0.03 61 1013.4
20260503010429 43 1 4.0 5.0 0.00 0.03 0.03 59 1013.1
20260503005927 43 319 3.0 3.0 0.00 0.03 0.03 59 1013.3
20260503005424 43 0 2.0 3.0 0.00 0.03 0.03 58 1013.2
20260503004920 43 291 3.0 3.0 0.00 0.03 0.03 57 1013.3
20260503004417 43 328 3.0 5.0 0.00 0.03 0.03 56 1013.1
20260503003915 44 278 1.0 1.0 0.00 0.03 0.03 56 1013.1
20260503003411 44 273 3.0 3.0 0.00 0.03 0.03 55 1012.9
20260503002909 44 311 1.0 2.0 0.00 0.03 0.03 55 1013.1
20260503002406 44 317 3.0 5.0 0.00 0.03 0.03 54 1012.6
20260503001902 44 288 5.0 6.0 0.00 0.03 0.03 54 1012.8
20260503001358 44 307 5.0 7.0 0.00 0.03 0.03 54 1012.6
20260503000856 44 310 2.0 2.0 0.00 0.03 0.03 54 1013.0
20260503000353 44 273 1.0 2.0 0.00 0.03 0.03 53 1013.0
20260502235850 44 293 3.0 3.0 0.00 0.03 0.03 53 1012.9
20260502235347 45 277 4.0 5.0 0.00 0.03 0.03 52 1012.9
20260502234844 45 291 5.0 6.0 0.00 0.03 0.03 52 1012.6
20260502234342 45 334 6.0 7.0 0.00 0.03 0.03 52 1012.6
20260502233838 45 281 4.0 5.0 0.00 0.03 0.03 52 1012.6
20260502233334 45 328 5.0 7.0 0.00 0.03 0.03 51 1012.5
20260502232831 45 322 5.0 6.0 0.00 0.03 0.03 50 1013.0
20260502232327 45 290 5.0 6.0 0.00 0.03 0.03 50 1012.6
20260502231824 45 277 2.0 2.0 0.00 0.03 0.03 51 1012.4
20260502231322 46 284 4.0 5.0 0.00 0.03 0.03 50 1012.3
20260502230820 46 321 9.0 9.0 0.00 0.03 0.03 50 1012.2
20260502230318 46 288 4.0 5.0 0.00 0.03 0.03 50 1012.4
20260502225814 46 336 8.0 9.0 0.00 0.03 0.03 49 1012.1
20260502225311 46 269 6.0 7.0 0.00 0.03 0.03 50 1012.4
20260502224808 46 333 4.0 6.0 0.00 0.03 0.03 51 1012.2
20260502224304 46 333 3.0 3.0 0.00 0.03 0.03 50 1012.1
20260502223802 47 313 3.0 5.0 0.00 0.03 0.03 49 1012.5
20260502223300 47 258 2.0 2.0 0.00 0.03 0.03 49 1012.2
20260502222757 47 274 2.0 2.0 0.00 0.03 0.03 49 1012.3
20260502222254 47 280 1.0 2.0 0.00 0.03 0.03 49 1012.1
20260502221750 47 316 1.0 1.0 0.00 0.03 0.03 49 1012.2
20260502221246 47 249 1.0 1.0 0.00 0.03 0.03 51 1012.1
20260502220743 47 300 0.0 1.0 0.00 0.03 0.03 51 1012.2
20260502220239 47 337 5.0 7.0 0.00 0.03 0.03 50 1012.0
20260502215736 47 243 2.0 2.0 0.00 0.03 0.03 50 1012.1
20260502215233 47 299 3.0 3.0 0.00 0.03 0.03 49 1012.2
20260502214730 47 297 4.0 5.0 0.00 0.03 0.03 50 1012.1
20260502214227 47 264 2.0 2.0 0.00 0.03 0.03 50 1012.2
20260502213724 47 276 2.0 2.0 0.00 0.03 0.03 50 1012.2
20260502213222 47 275 5.0 6.0 0.00 0.03 0.03 49 1012.3
20260502212720 47 273 3.0 3.0 0.00 0.03 0.03 50 1012.4
20260502212218 47 303 2.0 2.0 0.00 0.03 0.03 49 1012.3
20260502211714 47 277 7.0 9.0 0.00 0.03 0.03 49 1012.2
20260502211211 47 284 3.0 5.0 0.00 0.03 0.03 49 1012.0
20260502210708 47 278 4.0 5.0 0.00 0.03 0.03 49 1011.9
20260502210205 48 308 3.0 3.0 0.00 0.03 0.03 49 1012.2
20260502205702 48 283 4.0 6.0 0.00 0.03 0.03 49 1012.1
20260502205158 48 215 3.0 3.0 0.00 0.03 0.03 50 1012.2
20260502204655 48 284 5.0 6.0 0.00 0.03 0.03 46 1012.1
20260502204153 48 352 5.0 6.0 0.00 0.03 0.03 46 1012.1
20260502203650 48 332 5.0 6.0 0.00 0.03 0.03 47 1011.9
20260502203149 48 297 6.0 7.0 0.00 0.03 0.03 46 1012.1
20260502202642 48 296 2.0 2.0 0.00 0.03 0.03 46 1012.4
20260502202141 48 310 6.0 7.0 0.00 0.03 0.03 46 1012.2
20260502201637 48 286 4.0 5.0 0.00 0.03 0.03 46 1012.1
20260502201134 48 291 8.0 10.0 0.00 0.03 0.03 45 1012.3
20260502200630 48 283 5.0 6.0 0.00 0.03 0.03 45 1012.4
20260502200127 48 310 4.0 6.0 0.00 0.03 0.03 45 1012.2
20260502195626 48 252 2.0 2.0 0.00 0.03 0.03 48 1012.4
20260502195121 48 258 5.0 6.0 0.00 0.03 0.03 45 1012.5
20260502194618 48 249 1.0 2.0 0.00 0.03 0.03 44 1012.6
20260502194114 48 247 4.0 5.0 0.00 0.03 0.03 48 1012.5
20260502193611 47 268 1.0 1.0 0.00 0.03 0.03 46 1012.6
20260502193108 47 324 3.0 3.0 0.00 0.03 0.03 45 1012.9
20260502192603 47 334 4.0 6.0 0.00 0.03 0.03 46 1012.9
20260502192102 47 280 3.0 3.0 0.00 0.03 0.03 46 1012.9
20260502191558 47 317 4.0 5.0 0.00 0.03 0.03 46 1012.9
20260502191055 48 294 1.0 1.0 0.00 0.03 0.03 44 1013.1
20260502190553 48 318 3.0 3.0 0.00 0.03 0.03 44 1012.9
20260502190050 48 241 3.0 7.0 0.00 0.03 0.03 44 1013.2
20260502185544 48 221 2.0 3.0 0.00 0.03 0.03 44 1012.9
20260502185042 48 215 4.0 5.0 0.00 0.03 0.03 45 1013.0
20260502184538 48 299 5.0 7.0 0.00 0.03 0.03 46 1013.2
20260502184034 48 295 4.0 5.0 0.00 0.03 0.03 44 1013.2
20260502183530 49 333 5.0 6.0 0.00 0.03 0.03 42 1013.1
20260502183026 49 216 3.0 5.0 0.00 0.03 0.03 44 1012.8
20260502182521 48 228 0.0 1.0 0.00 0.03 0.03 43 1013.2
20260502182018 48 286 2.0 3.0 0.00 0.03 0.03 42 1013.1
20260502181516 48 300 4.0 5.0 0.00 0.03 0.03 43 1013.1
20260502181015 47 269 6.0 7.0 0.00 0.03 0.03 44 1013.1
20260502180511 47 287 9.0 10.0 0.00 0.03 0.03 43 1013.1
20260502170424 50 240 4.0 7.0 0.00 0.03 0.03 44 1012.9
20260502163907 49 227 4.0 5.0 0.00 0.03 0.03 44 1013.2
20260502163404 48 307 3.0 7.0 0.00 0.03 0.03 44 1013.3
20260502162902 49 348 7.0 9.0 0.00 0.03 0.03 45 1013.1
20260502162358 49 284 7.0 8.0 0.00 0.03 0.03 45 1013.4
20260502161855 50 289 9.0 11.0 0.00 0.03 0.03 42 1013.3
20260502161351 50 198 3.0 3.0 0.00 0.03 0.03 44 1013.2
20260502160849 49 283 7.0 8.0 0.00 0.03 0.03 43 1013.2
20260502160347 48 274 4.0 5.0 0.00 0.03 0.03 43 1013.2
20260502152322 48 334 3.0 3.0 0.00 0.03 0.03 45 1013.4
20260502151820 47 355 10.0 11.0 0.00 0.03 0.03 43 1013.2
20260502151317 48 277 10.0 13.0 0.00 0.03 0.03 41 1013.2
20260502150814 47 275 9.0 13.0 0.00 0.03 0.03 46 1013.4
20260502150310 47 290 3.0 5.0 0.00 0.03 0.03 50 1013.4
20260502130659 44 270 3.0 6.0 0.00 0.03 0.03 68 1013.8
20260502130157 44 320 6.0 7.0 0.00 0.03 0.03 68 1013.7
20260502123642 42 338 3.0 6.0 0.00 0.03 0.03 71 1013.7
20260502123139 42 337 5.0 7.0 0.00 0.03 0.03 70 1013.7
20260502122635 42 307 2.0 3.0 0.00 0.03 0.03 69 1013.5
20260502122132 42 288 7.0 9.0 0.00 0.03 0.03 65 1013.3
20260502121630 42 281 4.0 5.0 0.00 0.03 0.03 68 1013.4
20260502121127 43 274 9.0 11.0 0.00 0.03 0.03 68 1013.4
20260502120624 43 340 4.0 5.0 0.00 0.03 0.03 77 1013.6
20260502120121 42 299 3.0 5.0 0.00 0.03 0.03 78 1013.4
20260502115619 42 342 2.0 2.0 0.00 0.03 0.03 80 1013.7
20260502115114 42 356 4.0 5.0 0.00 0.03 0.03 81 1013.5
20260502114610 42 18 2.0 2.0 0.00 0.03 0.03 83 1013.7
20260502114108 42 299 5.0 9.0 0.00 0.03 0.03 86 1013.7
20260502113605 42 314 6.0 7.0 0.00 0.03 0.03 91 1013.8
20260502113104 42 56 3.0 5.0 0.00 0.03 0.03 94 1013.5
20260502112601 41 279 1.0 1.0 0.00 0.03 0.03 95 1013.4
20260502112058 41 270 3.0 3.0 0.00 0.03 0.03 96 1013.4
20260502111556 40 285 0.0 1.0 0.00 0.03 0.03 96 1013.6
20260502111053 40 287 0.0 0.0 0.00 0.03 0.03 95 1013.4
20260502110550 39 248 0.0 0.0 0.00 0.03 0.03 95 1013.5
20260502110048 40 255 0.0 0.0 0.00 0.03 0.03 95 1013.7
20260502105545 40 293 0.0 0.0 0.00 0.03 0.03 95 1013.3
20260502105043 39 309 1.0 1.0 0.00 0.03 0.03 95 1013.3
20260502104539 39 320 1.0 1.0 0.00 0.03 0.03 95 1013.2
20260502104037 39 297 0.0 0.0 0.00 0.03 0.03 95 1013.2
20260502103535 39 301 1.0 1.0 0.00 0.03 0.03 95 1013.1
20260502103033 39 266 0.0 0.0 0.00 0.03 0.03 95 1013.2
20260502102528 39 274 0.0 0.0 0.00 0.03 0.03 95 1013.1
20260502102026 39 274 0.0 0.0 0.00 0.03 0.03 94 1012.9
20260502101523 39 275 0.0 0.0 0.00 0.03 0.03 94 1013.0
20260502101022 39 297 0.0 0.0 0.00 0.03 0.03 94 1012.8
20260502100520 39 325 1.0 1.0 0.00 0.03 0.03 94 1012.9
20260502091454 40 283 0.0 0.0 0.00 0.03 0.03 91 1012.2
20260502090952 40 268 0.0 0.0 0.00 0.03 0.03 91 1012.4
20260502090448 41 218 2.0 2.0 0.00 0.03 0.03 91 1012.3
20260502071343 41 276 0.0 0.0 0.00 0.03 0.03 91 1012.1
20260502070841 41 256 0.0 0.0 0.00 0.03 0.03 91 1011.9
20260502070339 41 282 0.0 0.0 0.00 0.03 0.03 91 1011.8
20260502065837 41 279 0.0 0.0 0.00 0.03 0.03 91 1012.1
20260502065335 41 313 1.0 1.0 0.00 0.03 0.03 91 1011.9
20260502064833 41 300 3.0 3.0 0.00 0.03 0.03 91 1011.8
20260502064331 41 280 0.0 1.0 0.00 0.03 0.03 91 1012.0
20260502063827 41 284 2.0 2.0 0.00 0.03 0.03 91 1011.9
20260502063325 41 323 2.0 2.0 0.00 0.03 0.03 92 1011.9
20260502062822 41 314 2.0 2.0 0.00 0.03 0.03 92 1011.9
20260502062320 41 299 1.0 2.0 0.00 0.03 0.03 92 1012.1
20260502061819 41 356 3.0 3.0 0.00 0.03 0.03 92 1012.1
20260502061316 42 349 2.0 2.0 0.00 0.03 0.03 91 1011.9
20260502060811 42 319 1.0 1.0 0.00 0.03 0.03 91 1011.9
20260502060307 42 290 0.0 0.0 0.00 0.03 0.03 91 1012.1
20260502055805 42 55 0.0 0.0 0.00 0.03 0.03 91 1012.2
20260502055305 41 253 0.0 0.0 0.00 0.03 0.03 91 1011.8
20260502054802 42 303 0.0 0.0 0.00 0.03 0.03 91 1012.0
20260502054259 41 243 1.0 1.0 0.00 0.03 0.03 91 1012.2
20260502053756 41 40 1.0 1.0 0.00 0.03 0.03 91 1011.7
20260502053253 41 325 0.0 1.0 0.00 0.03 0.03 91 1012.0
20260502052751 41 294 1.0 2.0 0.00 0.03 0.03 91 1011.8
20260502052249 42 288 3.0 3.0 0.00 0.03 0.03 91 1011.8
20260502051746 42 309 1.0 1.0 0.00 0.03 0.03 91 1012.0
20260502051245 42 293 2.0 2.0 0.00 0.03 0.03 90 1011.8
20260502050741 42 280 3.0 3.0 0.00 0.03 0.03 90 1011.9
20260502050237 42 285 2.0 3.0 0.07 0.03 0.03 91 1012.0
20260502045734 42 273 0.0 0.0 0.12 0.03 0.03 91 1012.2
20260502045231 43 317 4.0 6.0 0.12 0.02 0.02 91 1012.1
20260502044728 43 282 3.0 5.0 0.07 0.01 0.01 91 1012.1
20260502044224 43 274 1.0 2.0 0.00 0.00 0.00 91 1012.0
20260502043722 43 262 1.0 1.0 0.00 0.00 0.00 91 1011.6
20260502043219 44 267 1.0 2.0 0.00 0.00 0.00 91 1011.6
20260502042718 44 254 2.0 3.0 0.00 0.00 0.00 91 1011.7
20260502042216 44 230 4.0 5.0 0.00 0.00 0.00 91 1011.8
20260502041714 44 247 3.0 3.0 0.00 0.00 0.00 91 1011.5
20260502041211 44 222 4.0 5.0 0.00 0.00 0.00 92 1011.7